When you browse on this site, cookies collect data to enhance your experience and personalize the content and advertising you see.
Visit our Privacy Policy to learn more. By continuing to use the site, you agree to this use of cookies and data.
  • In Hungary
  • List of Countries
  • For 7 days
  • Water Temperature
  • Satellite Maps
  • Weather Map
  • News
  • Weather Widgets
  • user-avatar
    Login

    Hourly Weather Gabrovo

    Today, 19 April, Friday

    Time Temperature Precipitation Wind Pressure Humidity
    00:00 +4°C° 0 mm 2 mps 708 mmHg 92%
    01:00 +3°C° 0 mm 2 mps 707 mmHg 91%
    02:00 +3°C° 0 mm 2 mps 707 mmHg 90%
    03:00 +2°C° 0 mm 2 mps 707 mmHg 89%
    04:00 +2°C° 0 mm 2 mps 707 mmHg 89%
    05:00 +2°C° 0 mm 2 mps 707 mmHg 88%
    06:00 +4°C° 0 mm 2 mps 707 mmHg 84%
    07:00 +5°C° 0 mm 2 mps 707 mmHg 81%
    08:00 +6°C° 0 mm 2 mps 707 mmHg 77%
    09:00 +7°C° 0 mm 2 mps 707 mmHg 72%
    10:00 +9°C° 0 mm 3 mps 707 mmHg 66%
    11:00 +10°C° 0 mm 3 mps 707 mmHg 60%
    12:00 +11°C° 0.1 mm 3 mps 707 mmHg 56%
    13:00 +12°C° 0.1 mm 3 mps 706 mmHg 53%
    14:00 +13°C° 0.1 mm 3 mps 706 mmHg 49%
    15:00 +13°C° 0.3 mm 2 mps 706 mmHg 51%
    16:00 +13°C° 0.3 mm 2 mps 705 mmHg 52%
    17:00 +13°C° 0.3 mm 2 mps 705 mmHg 53%
    18:00 +10°C° 0.7 mm 2 mps 705 mmHg 64%
    19:00 +8°C° 0.7 mm 2 mps 705 mmHg 75%
    20:00 +7°C° 0.7 mm 3 mps 705 mmHg 86%
    21:00 +6°C° 0.2 mm 2 mps 705 mmHg 87%
    22:00 +6°C° 0.2 mm 2 mps 706 mmHg 88%
    23:00 +6°C° 0.2 mm 2 mps 706 mmHg 89%

    Tomorrow, 20 April, Saturday

    Time Temperature Precipitation Wind Pressure Humidity
    00:00 +5°C° 0 mm 2 mps 706 mmHg 89%
    01:00 +4°C° 0 mm 2 mps 707 mmHg 90%
    02:00 +4°C° 0 mm 2 mps 707 mmHg 90%
    03:00 +3°C° 0 mm 2 mps 707 mmHg 90%
    04:00 +2°C° 0 mm 2 mps 707 mmHg 90%
    05:00 +2°C° 0 mm 2 mps 707 mmHg 91%
    06:00 +3°C° 0 mm 2 mps 707 mmHg 84%
    07:00 +5°C° 0 mm 1 mps 708 mmHg 78%
    08:00 +6°C° 0 mm 1 mps 708 mmHg 72%
    09:00 +6°C° 0 mm 2 mps 708 mmHg 64%
    10:00 +8°C° 0 mm 2 mps 709 mmHg 56%
    11:00 +9°C° 0 mm 2 mps 709 mmHg 49%
    12:00 +9°C° 0.2 mm 3 mps 709 mmHg 49%
    13:00 +10°C° 0.2 mm 3 mps 708 mmHg 50%
    14:00 +10°C° 0.2 mm 3 mps 708 mmHg 50%
    15:00 +9°C° 0.1 mm 3 mps 708 mmHg 52%
    16:00 +9°C° 0.1 mm 3 mps 708 mmHg 55%
    17:00 +9°C° 0.1 mm 3 mps 708 mmHg 57%
    18:00 +7°C° 0 mm 2 mps 708 mmHg 63%
    19:00 +5°C° 0 mm 2 mps 708 mmHg 70%
    20:00 +5°C° 0 mm 1 mps 708 mmHg 76%
    21:00 +4°C° 0 mm 1 mps 708 mmHg 76%
    22:00 +4°C° 0 mm 1 mps 708 mmHg 75%
    23:00 +3°C° 0 mm 1 mps 708 mmHg 75%

    Day after tomorrow, 21 April, Sunday

    Time Temperature Precipitation Wind Pressure Humidity
    00:00 +3°C° 0 mm 1 mps 708 mmHg 73%
    01:00 +3°C° 0 mm 1 mps 708 mmHg 72%
    02:00 +3°C° 0 mm 1 mps 707 mmHg 71%
    03:00 +3°C° 0 mm 1 mps 707 mmHg 70%
    04:00 +2°C° 0 mm 1 mps 707 mmHg 70%
    05:00 +2°C° 0 mm 1 mps 707 mmHg 69%
    06:00 +4°C° 0 mm 1 mps 707 mmHg 65%
    07:00 +6°C° 0 mm 1 mps 707 mmHg 60%
    08:00 +8°C° 0 mm 1 mps 707 mmHg 55%
    09:00 +9°C° 0 mm 1 mps 708 mmHg 52%
    10:00 +11°C° 0 mm 1 mps 708 mmHg 48%
    11:00 +12°C° 0 mm 2 mps 708 mmHg 45%
    12:00 +12°C° 0 mm 2 mps 707 mmHg 45%
    13:00 +13°C° 0 mm 2 mps 707 mmHg 46%
    14:00 +13°C° 0 mm 2 mps 706 mmHg 46%
    15:00 +13°C° 0 mm 2 mps 706 mmHg 48%
    16:00 +13°C° 0 mm 2 mps 706 mmHg 49%
    17:00 +13°C° 0 mm 2 mps 706 mmHg 51%
    18:00 +11°C° 0 mm 1 mps 705 mmHg 59%
    19:00 +9°C° 0 mm 1 mps 705 mmHg 66%
    20:00 +7°C° 0 mm 1 mps 705 mmHg 74%
    21:00 +6°C° 0 mm 1 mps 705 mmHg 76%
    22:00 +6°C° 0 mm 1 mps 705 mmHg 78%
    23:00 +5°C° 0 mm 1 mps 705 mmHg 80%

    22 April, Monday

    Time Temperature Precipitation Wind Pressure Humidity
    00:00 +5°C° 0 mm 1 mps 705 mmHg 81%
    01:00 +4°C° 0 mm 1 mps 705 mmHg 82%
    02:00 +4°C° 0 mm 1 mps 705 mmHg 82%
    03:00 +4°C° 0 mm 1 mps 705 mmHg 83%
    04:00 +3°C° 0 mm 1 mps 705 mmHg 85%
    05:00 +3°C° 0 mm 1 mps 704 mmHg 86%
    06:00 +5°C° 0 mm 1 mps 705 mmHg 80%
    07:00 +6°C° 0 mm 1 mps 705 mmHg 74%
    08:00 +8°C° 0 mm 1 mps 706 mmHg 69%
    09:00 +9°C° 0 mm 2 mps 706 mmHg 65%
    10:00 +10°C° 0 mm 2 mps 706 mmHg 60%
    11:00 +12°C° 0 mm 3 mps 707 mmHg 56%
    12:00 +12°C° 0 mm 3 mps 706 mmHg 55%
    13:00 +13°C° 0 mm 3 mps 706 mmHg 55%
    14:00 +14°C° 0 mm 4 mps 706 mmHg 54%
    15:00 +13°C° 0 mm 4 mps 706 mmHg 57%
    16:00 +13°C° 0 mm 4 mps 706 mmHg 60%
    17:00 +13°C° 0 mm 4 mps 706 mmHg 62%
    18:00 +11°C° 0 mm 4 mps 706 mmHg 69%
    19:00 +8°C° 0 mm 4 mps 706 mmHg 75%
    20:00 +8°C° 0 mm 3 mps 706 mmHg 82%
    21:00 +6°C° 0 mm 4 mps 706 mmHg 81%
    22:00 +5°C° 0 mm 4 mps 706 mmHg 80%
    23:00 +4°C° 0 mm 4 mps 706 mmHg 80%

    23 April, Tuesday

    Time Temperature Precipitation Wind Pressure Humidity
    00:00 +4°C° 0 mm 3 mps 706 mmHg 78%
    01:00 +3°C° 0 mm 3 mps 706 mmHg 77%
    02:00 +3°C° 0 mm 3 mps 706 mmHg 75%
    03:00 +2°C° 0 mm 3 mps 706 mmHg 74%
    04:00 +3°C° 0 mm 2 mps 706 mmHg 73%
    05:00 +3°C° 0 mm 2 mps 706 mmHg 72%
    06:00 +3°C° 0.3 mm 2 mps 706 mmHg 75%
    07:00 +4°C° 0.3 mm 2 mps 707 mmHg 77%
    08:00 +3°C° 0.3 mm 3 mps 707 mmHg 79%
    09:00 +4°C° 0.3 mm 3 mps 707 mmHg 76%
    10:00 +5°C° 0.3 mm 3 mps 707 mmHg 73%
    11:00 +7°C° 0.3 mm 3 mps 708 mmHg 70%
    12:00 +7°C° 0 mm 4 mps 707 mmHg 67%
    13:00 +8°C° 0 mm 4 mps 707 mmHg 64%
    14:00 +10°C° 0 mm 4 mps 707 mmHg 60%
    15:00 +10°C° 0.1 mm 4 mps 706 mmHg 62%
    16:00 +10°C° 0.1 mm 4 mps 706 mmHg 64%
    17:00 +10°C° 0.1 mm 4 mps 706 mmHg 66%
    18:00 +8°C° 0 mm 4 mps 706 mmHg 72%
    19:00 +7°C° 0 mm 3 mps 706 mmHg 79%
    20:00 +5°C° 0 mm 3 mps 706 mmHg 85%
    21:00 +4°C° 0 mm 3 mps 706 mmHg 87%
    22:00 +3°C° 0 mm 3 mps 706 mmHg 89%
    23:00 +4°C° 0 mm 2 mps 706 mmHg 90%

    24 April, Wednesday

    Time Temperature Precipitation Wind Pressure Humidity
    00:00 +3°C° 0 mm 2 mps 706 mmHg 90%
    01:00 +3°C° 0 mm 2 mps 706 mmHg 89%
    02:00 +3°C° 0 mm 2 mps 705 mmHg 88%
    03:00 +2°C° 0 mm 2 mps 705 mmHg 89%
    04:00 +2°C° 0 mm 2 mps 705 mmHg 89%
    05:00 +3°C° 0 mm 1 mps 705 mmHg 90%
    06:00 +4°C° 0 mm 2 mps 706 mmHg 86%
    07:00 +5°C° 0 mm 2 mps 706 mmHg 82%
    08:00 +7°C° 0 mm 2 mps 706 mmHg 78%
    09:00 +9°C° 0 mm 2 mps 706 mmHg 73%
    10:00 +12°C° 0 mm 2 mps 707 mmHg 68%
    11:00 +13°C° 0 mm 2 mps 707 mmHg 63%
    12:00 +15°C° 0 mm 2 mps 707 mmHg 60%
    13:00 +16°C° 0 mm 2 mps 707 mmHg 58%
    14:00 +17°C° 0 mm 2 mps 707 mmHg 56%
    15:00 +16°C° 0 mm 2 mps 706 mmHg 58%
    16:00 +16°C° 0 mm 2 mps 706 mmHg 60%
    17:00 +16°C° 0 mm 2 mps 706 mmHg 62%
    18:00 +14°C° 0 mm 2 mps 706 mmHg 71%
    19:00 +12°C° 0 mm 2 mps 706 mmHg 79%
    20:00 +9°C° 0 mm 2 mps 706 mmHg 88%
    21:00 +8°C° 0 mm 2 mps 706 mmHg 89%
    22:00 +7°C° 0 mm 2 mps 706 mmHg 91%
    23:00 +7°C° 0 mm 1 mps 706 mmHg 93%
    Show more